RH
3 3 3 3 3 3 3 3 3 3 3 3 3 3 3 3 3 3 3 3 3 3 3 3 3 3 3 3 3 2 3 3 3 5 5 5 5 5 6 6 6 6 6 7 8 9 11 15 24 35 34 30 26 19 44 70 63 58 52 52 65 68 64 64 67 72 71 69 69 75 85 89 87 85 88 74 45 41 52 53 48 46 53 52 37 35 42 43
3 3 3 3 4 3 4 4 4 4 4 4 3 4 3 3 3 3 3 3 3 3 3 3 3 3 3 2 3 2 2 3 3 4 5 5 5 5 6 6 6 7 6 7 8 8 8 10 15 24 32 32 29 30 48 62 58 59 55 49 56 62 64 63 65 65 62 62 57 63 81 90 93 83 81 87 69 52 54 52 46 40 36 40 37 34 42 44
3 4 4 4 4 4 4 4 4 4 4 4 4 4 4 4 4 4 4 4 3 3 3 3 3 3 3 3 3 2 2 2 3 3 4 5 5 5 6 6 6 7 6 8 8 8 8 8 9 14 30 39 33 34 49 53 50 58 57 47 48 59 69 70 67 62 57 57 52 55 67 72 84 87 77 79 81 67 60 64 55 39 33 37 39 35 38 43
3 4 4 4 4 5 5 5 5 5 5 5 5 5 5 5 5 4 4 4 4 4 4 3 3 3 3 3 2 3 2 2 3 3 4 4 5 5 5 6 6 7 7 7 8 9 9 7 6 12 28 39 29 28 48 56 54 62 55 42 49 60 66 67 65 63 58 53 49 52 56 55 64 78 70 62 82 83 65 68 65 48 39 39 39 34 33 38
4 4 4 5 5 5 5 5 5 5 5 5 5 5 5 5 5 5 5 4 4 4 4 3 3 3 3 3 2 3 2 2 3 3 3 4 5 5 5 6 6 7 7 7 8 9 9 7 7 9 16 23 20 29 55 60 54 62 51 33 43 55 59 62 64 65 64 58 54 54 56 54 50 52 48 44 72 89 72 67 67 55 42 39 38 32 30 32
4 4 4 5 5 5 5 5 5 5 5 5 6 6 5 6 5 5 5 5 5 4 4 4 3 3 3 3 2 3 2 2 3 2 3 3 4 5 6 7 7 7 7 7 8 9 10 9 9 7 7 10 11 27 53 54 48 66 63 34 27 38 50 62 72 75 71 66 63 61 60 58 48 40 39 35 49 75 83 77 67 55 40 36 38 31 30 31
3 4 4 4 4 5 5 5 5 5 5 5 5 6 6 6 6 6 5 5 5 5 4 4 4 3 3 3 3 3 2 3 3 3 3 3 4 5 6 7 8 8 7 7 7 8 11 11 10 6 5 6 8 25 45 45 44 64 69 39 27 41 53 65 84 87 73 66 64 59 60 61 52 45 44 36 33 54 85 91 72 56 40 33 38 34 33 32
3 3 3 4 4 4 5 5 5 5 5 5 5 6 6 6 6 6 6 6 5 5 5 4 4 3 3 3 3 3 2 3 3 4 4 4 4 5 6 7 8 9 7 8 7 8 10 9 9 7 9 11 11 21 32 32 33 53 61 39 38 55 58 65 80 79 63 57 58 59 60 58 52 48 49 42 34 43 74 93 83 63 43 32 36 36 35 34
3 3 3 3 4 4 4 4 4 5 5 5 5 6 6 6 6 6 6 6 6 6 5 4 4 4 4 3 3 3 3 4 4 4 4 4 5 4 6 6 7 8 8 9 7 8 9 7 8 10 15 20 17 14 16 20 27 45 49 34 41 57 57 59 67 63 49 47 57 67 68 59 49 50 57 51 38 42 65 87 90 72 43 31 33 35 35 35
2 3 3 3 3 3 4 4 4 4 4 5 5 6 6 6 6 7 6 6 6 6 5 5 4 4 3 3 3 3 3 4 4 5 5 5 6 5 5 6 7 7 8 9 9 9 8 6 9 12 15 21 20 12 8 13 24 36 33 32 51 63 57 55 62 60 52 56 66 71 73 64 50 49 58 58 50 53 69 86 93 73 44 34 34 35 37 37
2 2 3 3 3 3 3 4 4 4 4 4 5 6 6 7 7 7 7 7 6 6 5 5 4 4 4 3 3 4 4 4 5 6 6 6 6 6 6 6 7 7 7 8 9 9 8 7 8 10 14 17 16 12 11 15 26 36 30 33 47 50 53 59 65 68 65 69 72 69 72 69 57 50 53 61 65 63 72 91 95 70 45 43 41 41 43 42
2 2 3 3 3 3 3 3 4 4 4 4 5 6 7 7 7 7 7 7 7 6 6 5 4 4 4 3 3 4 4 4 6 6 6 6 6 7 6 6 7 7 7 7 7 7 8 9 8 10 11 13 17 16 14 15 24 33 28 28 33 38 57 69 70 74 76 73 67 63 69 71 61 52 49 57 62 62 75 96 95 66 46 50 49 49 48 42
2 2 2 3 3 3 3 3 3 3 4 5 6 7 7 8 8 8 8 7 7 6 5 5 4 4 4 4 3 3 4 6 6 6 6 6 5 6 6 7 7 7 7 6 7 7 8 9 10 11 10 14 22 19 12 9 12 18 19 22 31 49 70 76 74 78 80 71 62 61 70 76 67 50 42 50 57 64 82 97 91 64 47 51 52 56 52 38
2 3 2 3 3 3 3 3 3 3 4 5 7 8 8 8 9 8 8 7 7 6 6 5 4 4 4 3 3 3 5 6 6 6 6 5 5 5 5 6 6 7 7 7 7 6 7 8 10 12 11 15 19 16 12 10 8 10 14 16 30 61 78 76 73 75 75 66 59 61 71 80 75 57 44 51 66 76 89 98 88 64 49 50 50 56 52 37
3 3 3 3 3 3 3 3 3 4 5 7 8 8 9 9 9 9 8 7 7 6 5 5 4 4 4 4 3 4 5 6 6 6 5 5 5 5 5 5 6 7 7 7 7 6 6 7 9 11 12 13 14 13 12 10 8 9 14 18 33 60 69 70 71 68 66 62 59 59 64 70 73 66 53 58 81 89 95 100 84 62 50 48 50 54 50 42
3 3 3 3 3 3 3 4 5 6 7 8 8 9 10 10 9 9 8 7 7 6 5 5 5 4 4 4 3 4 5 6 7 5 5 5 4 5 5 5 5 6 6 6 6 6 7 6 7 10 12 12 12 12 11 10 9 7 12 20 35 54 62 72 75 66 63 60 56 54 54 59 69 77 67 68 93 98 99 100 79 59 51 48 54 54 48 48
3 3 3 3 4 4 5 6 7 7 8 9 10 10 10 10 9 8 8 7 6 6 5 5 4 4 4 4 4 5 6 7 6 5 5 4 4 4 4 5 5 5 5 6 6 7 7 6 7 9 11 11 11 12 11 11 10 9 11 13 31 59 75 82 75 64 64 59 54 51 49 58 76 92 83 77 92 95 98 99 75 59 53 49 58 56 48 53
4 4 5 5 6 6 7 7 8 9 9 10 10 10 10 9 9 8 7 6 6 5 5 5 4 4 4 4 5 6 7 7 6 5 5 4 4 4 4 4 4 5 5 5 6 6 7 7 8 8 10 12 13 13 13 13 12 11 10 15 46 80 89 87 74 64 64 60 55 50 50 62 75 89 91 86 92 97 101 94 70 62 57 47 55 55 50 56
6 6 7 7 7 8 8 9 9 10 11 11 11 10 10 9 8 7 6 6 5 5 5 4 4 4 4 4 5 7 8 7 6 5 4 4 4 4 4 4 4 5 4 5 6 6 7 8 9 11 14 15 16 15 14 15 13 13 17 29 65 97 94 82 72 65 64 61 58 50 53 67 68 73 86 90 91 93 92 81 67 67 64 53 53 51 49 57
7 7 8 8 8 9 9 11 11 11 11 11 11 10 9 8 7 6 6 5 5 5 5 4 5 4 4 5 5 8 8 7 6 5 4 4 4 4 4 4 5 5 4 5 6 7 8 9 12 14 16 17 17 18 17 20 18 20 36 44 60 91 93 77 68 66 64 61 59 50 49 67 71 66 68 74 77 73 70 72 74 75 71 65 61 53 47 54
8 8 9 9 10 11 11 12 12 12 11 11 10 10 9 7 6 6 5 5 4 5 5 4 5 4 4 5 5 7 8 7 6 5 5 4 4 4 5 5 5 5 6 7 8 10 10 13 17 18 21 20 17 19 21 24 17 24 58 65 59 82 88 71 65 67 66 63 60 51 45 62 79 75 62 59 61 59 60 68 76 79 72 67 71 65 53 55
9 10 10 11 12 12 12 12 12 12 11 10 9 8 8 6 5 5 4 4 4 4 4 5 5 4 5 4 5 7 9 8 6 5 5 4 4 4 4 5 5 6 7 9 10 9 11 18 23 22 23 19 15 17 17 16 11 29 78 86 67 77 80 69 67 68 70 65 59 55 51 57 74 83 77 67 62 59 60 62 66 71 70 71 80 77 65 64
11 12 12 12 13 12 12 12 11 11 9 9 7 6 6 5 4 4 4 5 4 5 5 5 5 6 7 7 7 9 9 7 6 5 5 4 4 4 5 6 5 5 8 14 14 10 13 21 28 28 22 19 19 16 15 16 19 48 91 93 73 74 74 71 69 68 71 66 60 61 59 61 74 85 88 85 81 77 73 70 64 60 65 76 83 81 78 79
13 13 12 12 12 11 11 10 9 9 7 7 6 5 5 4 4 4 4 5 4 6 5 5 7 10 12 11 10 9 8 8 6 5 5 4 4 4 6 7 7 7 7 13 16 15 19 20 27 31 24 27 26 23 27 28 37 69 96 95 79 70 69 67 63 66 70 63 60 62 57 63 77 84 91 94 94 94 92 88 80 66 62 73 81 84 87 87
13 12 12 11 10 10 9 8 7 7 6 6 5 5 5 4 4 4 4 5 5 5 6 8 11 13 14 11 10 10 9 9 8 7 5 4 4 3 5 6 7 8 7 12 14 18 25 22 23 28 27 32 29 30 36 33 52 85 95 91 79 64 61 61 55 62 73 64 59 63 60 62 73 82 93 96 94 95 96 92 88 79 67 66 76 83 84 82
11 10 9 8 8 7 7 6 6 5 5 5 5 5 5 4 5 4 5 5 5 6 9 13 14 15 15 11 10 11 10 10 8 8 6 5 4 3 5 5 5 8 7 12 18 21 25 21 19 21 23 28 27 28 26 25 58 85 80 80 74 59 54 54 53 61 73 71 58 59 64 69 79 88 95 99 96 93 94 92 90 90 83 73 73 79 82 81
8 8 7 7 6 5 6 5 5 5 5 5 5 5 5 5 5 5 6 5 6 10 13 17 18 17 16 13 12 12 11 10 7 7 7 6 5 4 5 6 7 11 7 10 23 31 33 29 24 20 18 16 14 15 9 17 55 71 68 73 67 58 55 53 57 61 70 75 63 57 64 75 87 91 93 97 95 92 91 90 88 90 95 89 79 79 84 85
6 6 6 6 6 6 6 6 6 6 6 6 6 5 5 6 5 5 6 5 9 15 18 22 23 19 16 13 11 13 13 11 8 8 8 6 6 5 5 6 8 12 7 7 23 35 36 32 26 22 21 16 11 11 6 18 50 58 60 65 54 54 60 57 58 56 59 65 61 56 56 66 79 83 88 91 89 95 96 90 87 87 94 98 91 82 79 80
6 6 6 7 7 7 7 8 8 7 7 7 6 6 6 6 6 6 6 7 13 19 20 22 20 15 14 12 11 12 13 13 9 7 7 7 7 5 6 6 8 12 9 9 24 31 28 29 31 26 22 19 16 15 12 22 43 49 54 58 47 52 62 57 56 56 52 46 42 43 41 46 54 57 67 73 76 92 99 93 91 87 87 93 96 90 81 76
8 10 11 11 12 12 12 13 12 11 10 8 8 7 7 6 7 6 6 10 18 20 18 19 17 13 12 11 12 13 13 14 10 7 7 7 6 7 7 6 10 16 17 23 35 33 27 35 43 37 31 31 24 14 14 23 31 33 42 49 44 52 62 59 62 65 54 43 40 42 44 45 42 39 46 54 65 82 90 91 92 88 85 85 88 91 91 89
12 16 19 21 23 22 22 22 21 19 15 11 9 8 8 7 7 7 8 14 20 20 19 20 18 13 12 12 12 13 16 15 10 9 9 9 9 8 7 8 17 27 32 41 45 39 36 40 46 46 45 51 39 15 12 20 21 21 30 41 42 49 60 61 63 60 52 59 63 58 59 57 45 39 38 41 56 71 80 86 86 83 81 77 76 77 82 91
17 22 26 30 32 32 31 31 31 29 25 19 12 10 9 9 8 7 9 15 22 25 23 20 18 18 19 19 14 13 17 16 13 12 11 14 15 12 13 16 26 41 49 52 49 43 39 39 48 52 44 45 39 18 11 15 19 24 25 31 38 42 51 55 54 53 59 76 82 75 76 71 56 44 33 27 37 52 65 75 77 73 70 67 66 65 65 76
25 28 31 34 37 38 37 37 37 36 35 28 18 12 10 10 10 9 12 18 25 30 26 18 20 26 26 21 15 13 15 16 17 17 19 22 18 19 24 19 26 47 53 50 50 45 37 37 51 55 40 37 31 15 17 18 16 23 25 29 40 45 51 53 52 61 73 78 76 75 77 73 66 59 43 28 24 33 47 58 63 64 61 57 56 56 56 61
31 32 35 37 38 39 39 39 39 37 39 35 26 18 12 10 11 11 16 22 24 27 27 23 26 32 27 18 17 16 13 16 21 23 29 32 27 28 31 22 28 47 48 46 53 51 42 44 57 59 51 52 40 19 25 27 15 22 36 44 55 61 60 58 61 70 75 73 73 77 77 71 72 69 53 40 33 37 48 54 58 58 56 56 56 59 63 62
31 33 38 41 41 41 38 38 37 37 39 39 33 24 15 11 12 12 18 23 20 19 25 31 35 36 31 22 22 22 19 24 32 34 33 31 30 31 30 26 31 41 46 50 55 53 48 50 61 66 59 55 46 30 32 34 24 29 46 53 59 66 63 58 64 70 70 73 75 76 78 76 77 74 63 62 67 68 65 58 54 56 57 59 60 67 77 80
37 42 48 48 45 41 37 37 37 37 39 39 38 30 17 12 12 15 24 27 23 19 20 32 40 39 36 31 29 32 32 35 42 44 37 30 33 32 28 28 29 35 50 57 55 55 55 50 52 63 63 51 44 40 36 36 31 30 44 57 64 69 67 62 67 69 67 72 72 71 76 75 77 80 77 79 82 77 67 54 51 60 65 63 62 70 76 77
48 52 55 53 47 40 38 39 40 40 41 41 41 33 18 12 13 19 32 35 31 26 20 28 39 38 36 36 35 36 39 40 44 46 41 36 41 39 31 33 33 37 51 59 59 62 61 55 52 59 62 51 42 37 33 34 37 36 45 61 67 67 67 65 66 66 65 67 67 67 70 69 71 79 82 81 78 71 65 59 57 63 70 69 64 68 73 71
53 53 56 56 51 45 43 44 43 43 43 42 43 36 21 14 13 21 38 43 37 35 30 29 38 37 33 36 38 36 39 44 46 47 42 38 42 42 34 37 42 42 46 52 59 64 63 60 59 52 44 40 33 28 32 36 39 45 50 56 61 61 64 66 62 61 61 61 62 62 63 64 69 79 85 86 84 76 65 60 57 56 63 69 67 67 72 72
54 52 56 56 52 50 48 47 45 43 43 43 45 40 24 14 15 25 45 48 38 37 35 30 38 39 33 37 43 41 42 47 48 47 44 40 42 43 41 46 48 44 44 46 50 59 64 61 58 46 31 33 33 29 41 40 30 42 55 55 58 59 63 67 63 62 63 60 59 60 59 60 67 79 84 83 83 76 63 57 53 51 54 58 60 65 68 66
53 53 57 54 49 52 51 49 48 44 42 44 47 44 29 16 15 24 38 41 33 32 29 25 36 41 34 38 47 47 46 48 49 48 44 42 43 42 45 50 48 44 45 46 42 50 62 60 55 46 33 34 33 27 41 42 28 41 58 57 61 61 61 66 64 64 67 64 61 61 60 59 63 73 77 75 74 70 65 62 58 58 60 60 60 63 65 64
50 51 56 53 48 53 55 52 50 46 43 44 47 46 35 21 15 19 26 30 33 36 29 23 35 40 34 41 49 49 49 48 49 48 45 46 47 45 46 46 45 44 45 45 40 41 55 61 55 48 39 38 34 22 29 40 39 49 58 56 59 56 53 59 63 62 63 63 63 61 61 59 58 65 68 66 68 68 67 67 63 61 59 60 66 68 66 65
51 49 56 57 52 55 59 55 52 50 46 46 47 48 41 26 17 17 22 26 32 35 28 26 36 36 31 41 50 49 49 49 49 48 47 49 50 49 49 45 44 44 40 41 41 34 41 54 57 51 39 34 37 31 34 47 50 55 59 53 48 45 44 47 52 55 57 60 60 56 57 55 51 55 56 54 58 63 63 61 58 57 55 58 65 67 66 65
56 50 54 59 56 57 61 57 54 53 49 47 48 49 46 33 20 17 25 35 39 37 31 32 42 43 37 41 49 50 49 49 50 50 49 52 53 51 51 48 46 46 39 39 43 35 30 35 45 48 36 28 36 42 49 58 55 55 63 61 55 57 58 54 52 54 58 61 57 49 50 52 48 49 50 48 51 55 58 58 55 53 55 62 65 62 61 61
61 54 54 60 61 62 64 60 56 54 51 49 48 48 48 39 25 18 25 41 48 44 38 35 40 46 42 40 45 49 49 49 50 52 52 54 57 55 53 52 48 46 39 35 37 37 32 23 23 33 32 31 42 46 48 57 58 58 67 72 72 75 72 64 57 55 59 63 60 53 52 54 53 53 53 51 51 53 57 61 59 53 53 55 55 53 52 52
65 60 56 58 61 63 63 60 57 56 53 51 48 47 48 44 33 21 26 49 60 51 42 37 37 45 48 44 43 45 49 50 50 53 54 54 56 55 54 54 50 45 42 39 35 35 35 28 20 21 22 31 52 56 48 51 54 52 53 58 66 72 67 53 40 37 43 52 59 62 61 58 56 56 56 53 51 52 55 58 56 52 51 51 50 48 45 43
70 64 56 56 61 63 62 59 57 56 55 53 49 47 47 48 40 25 25 48 61 53 45 40 38 45 51 52 50 45 47 50 49 52 56 55 55 54 53 53 49 47 46 46 43 37 33 31 27 21 16 26 53 65 57 51 48 46 45 44 51 61 56 42 32 31 35 41 49 59 62 61 59 57 56 55 52 51 54 54 51 46 45 47 47 45 44 43
73 65 59 63 67 66 62 58 55 54 54 51 47 46 48 51 48 33 26 38 51 57 57 50 48 54 54 52 52 47 48 51 48 50 56 59 58 54 51 49 46 47 46 44 45 41 32 30 27 21 16 24 49 67 62 51 47 50 52 47 50 58 54 43 41 41 41 43 47 50 51 52 55 54 54 57 56 52 51 51 49 45 42 42 40 37 38 41
74 69 68 70 71 68 64 60 56 55 55 51 45 42 44 50 53 44 32 35 46 58 61 56 61 72 64 51 47 44 48 54 52 50 53 59 61 55 51 50 49 51 47 40 41 40 34 33 29 23 19 20 40 63 66 58 51 51 53 54 57 60 53 45 46 43 42 45 46 43 37 32 31 35 41 49 50 47 47 48 47 44 40 36 34 32 31 34
78 76 76 74 73 70 64 60 59 59 56 51 44 40 39 42 50 51 42 37 42 51 56 61 74 80 69 58 52 43 43 51 54 53 52 57 62 59 54 53 53 53 48 41 38 36 34 35 31 28 25 19 26 47 62 66 60 50 48 53 59 62 54 49 53 49 40 36 31 24 18 12 8 12 17 24 30 33 36 39 37 35 31 27 25 26 26 27
82 81 78 73 70 68 64 61 62 61 57 53 48 45 42 37 39 48 50 44 42 44 48 58 75 83 77 72 67 53 43 44 47 51 55 59 65 67 62 56 54 54 51 47 43 37 35 38 34 30 27 21 19 26 36 47 48 42 44 55 66 69 56 48 57 56 39 26 18 12 12 11 8 6 6 8 15 20 24 26 24 22 22 19 18 19 20 20
83 80 75 67 64 64 64 63 63 63 62 62 61 57 51 43 38 41 47 47 46 46 45 46 56 70 78 79 73 63 53 47 47 52 58 61 63 68 70 65 60 60 60 57 52 43 40 43 40 32 27 23 19 16 17 22 26 31 43 54 59 56 40 28 34 37 27 17 13 13 18 19 15 12 9 7 8 11 14 19 21 20 18 16 14 14 14 14
81 76 70 62 61 63 65 66 66 64 63 65 67 65 59 52 46 44 44 47 50 51 51 49 48 57 73 81 77 69 60 55 56 60 63 63 63 66 71 70 67 68 67 62 57 50 46 46 43 37 30 23 18 17 15 14 17 25 35 38 36 33 27 20 18 17 15 14 14 16 18 16 13 10 9 9 10 11 15 19 22 21 17 14 12 11 11 11
Wind_Speed
14 14 14 13 13 13 12 12 12 11 11 10 10 9 9 9 9 9 9 9 9 9 10 10 11 11 12 13 14 14 13 13 12 12 12 13 12 12 12 10 10 9 9 9 8 8 8 9 8 8 7 5 2 3 4 1 3 4 3 4 5 5 6 6 5 5 5 6 7 8 5 5 6 6 6 7 7 7 5 3 3 4 3 3 6 6 5 7
12 12 11 11 11 11 10 10 10 10 9 9 9 9 9 9 9 9 9 9 10 10 11 11 12 12 13 14 15 15 14 14 14 12 13 14 14 14 13 12 11 11 10 9 9 8 8 9 10 9 7 5 3 3 5 4 2 2 3 2 3 3 4 5 5 4 5 6 6 8 6 3 4 5 7 7 5 6 5 4 4 4 4 4 5 5 4 6
10 10 9 9 9 9 9 9 9 8 8 8 8 8 9 9 9 9 9 10 10 11 11 12 13 14 14 15 16 16 16 16 15 13 14 16 16 15 14 14 13 13 12 11 11 9 9 9 10 9 5 4 5 6 7 6 4 1 1 2 3 3 2 4 5 5 6 6 7 8 7 5 3 3 7 7 4 4 3 3 4 4 4 4 4 4 4 6
8 8 7 7 7 7 8 7 8 7 8 8 8 8 8 9 9 9 10 10 11 11 12 13 14 14 15 16 17 17 17 17 15 15 16 17 17 17 16 15 14 14 14 12 12 11 11 10 10 9 7 8 9 9 10 6 3 2 1 1 1 0 1 2 3 5 6 6 7 7 7 7 6 5 7 9 5 2 1 1 3 3 3 3 3 4 4 7
6 6 5 5 6 6 6 6 7 7 7 7 7 8 8 9 9 10 10 11 11 12 13 14 14 15 16 16 17 18 18 17 16 16 17 17 17 17 17 17 16 16 15 14 14 12 12 11 10 11 10 11 11 11 11 6 4 3 2 2 4 4 2 3 4 5 6 7 8 8 8 8 8 8 10 10 6 1 2 1 1 2 2 2 2 3 3 5
4 3 3 3 3 4 4 5 5 6 6 7 7 8 8 9 9 10 11 11 12 13 14 15 16 16 16 16 17 19 20 19 18 17 17 17 17 17 17 17 16 16 17 16 15 14 14 13 12 12 11 10 10 11 10 7 6 6 4 5 6 3 3 5 5 6 6 7 8 10 10 10 10 10 11 10 7 2 2 1 1 1 1 1 2 3 3 4
1 1 1 1 1 2 3 3 4 4 5 6 7 7 8 9 9 10 11 12 13 14 15 16 17 17 17 17 18 20 20 18 17 17 16 16 16 16 16 16 16 17 17 17 16 16 15 15 14 13 11 9 9 11 11 9 7 8 7 7 5 1 4 3 4 5 6 6 8 10 11 11 10 10 10 11 9 4 3 4 3 1 0 1 1 2 3 4
1 2 2 2 2 2 3 3 4 4 5 6 6 7 8 9 9 10 11 13 14 15 16 17 18 18 18 18 19 21 21 18 16 16 16 16 16 16 16 17 17 17 17 17 17 17 17 17 14 13 11 9 10 13 14 11 8 10 9 6 2 2 2 1 3 5 5 6 8 10 12 13 12 11 11 11 9 5 3 5 5 2 1 1 1 1 2 3
3 3 4 4 3 4 4 4 4 5 5 6 7 8 8 9 10 11 12 13 15 16 17 18 19 19 19 19 19 21 22 19 16 15 15 16 16 16 16 17 18 17 17 17 18 18 19 17 14 13 12 11 13 16 15 10 6 9 9 5 3 2 1 1 3 4 5 7 8 9 11 13 13 12 12 11 9 7 4 5 6 4 2 2 2 1 1 2
4 5 5 5 4 5 5 5 5 6 6 7 7 8 9 10 11 12 13 14 16 17 18 19 20 20 20 19 19 20 22 20 16 14 15 14 15 16 16 17 18 18 17 17 18 20 20 17 14 15 13 13 16 18 15 9 7 7 6 4 3 2 1 2 4 4 5 6 7 9 10 12 12 11 12 12 9 7 6 6 8 6 4 3 3 1 1 2
5 6 5 5 5 5 5 6 6 7 7 7 8 8 9 11 12 13 14 15 17 18 19 20 20 20 20 20 19 19 21 21 17 14 14 14 14 15 15 16 17 18 17 17 19 20 19 15 15 15 15 16 17 17 15 11 10 8 4 3 3 1 1 2 3 4 4 5 6 8 10 11 12 12 12 11 9 8 7 6 9 8 5 5 3 2 1 1
6 6 5 6 6 6 6 7 7 7 8 8 8 9 10 11 13 14 15 17 18 18 20 20 20 20 21 20 19 18 19 19 18 16 14 14 14 14 14 15 16 17 17 17 18 18 17 15 15 16 16 15 14 15 14 12 11 9 6 4 3 1 1 2 3 3 4 5 6 8 10 11 12 14 11 10 11 9 8 7 10 9 7 6 4 3 2 1
6 6 6 6 6 7 7 8 8 8 8 8 9 10 11 12 14 15 16 18 18 19 20 20 20 20 21 20 19 19 18 17 17 17 16 15 15 14 14 14 15 16 17 17 17 17 17 17 16 15 16 14 11 13 14 13 11 9 8 7 5 3 3 4 3 3 4 6 7 7 10 11 12 13 12 11 10 9 9 9 12 11 8 8 5 4 3 2
6 6 6 6 7 7 8 8 8 8 9 9 10 11 12 14 15 16 18 19 19 20 21 20 20 20 20 20 20 19 18 16 16 16 16 15 15 14 14 14 15 15 16 17 16 16 16 16 16 15 16 16 14 14 14 13 11 10 9 9 7 6 6 4 3 4 5 7 6 6 9 10 11 12 12 11 9 9 10 11 14 12 9 8 6 5 4 2
6 6 6 7 8 8 8 9 8 8 9 10 11 13 14 16 17 18 20 20 20 21 20 20 20 20 20 19 19 19 18 16 15 15 15 15 14 14 13 14 14 15 15 16 16 16 15 16 17 16 17 19 18 17 16 14 13 10 9 10 9 8 6 3 4 5 5 6 5 6 8 11 13 13 12 10 8 9 12 13 15 14 11 9 7 6 5 3
6 6 7 7 8 8 8 8 8 9 10 12 13 14 16 17 18 20 21 20 21 21 20 20 19 19 20 19 19 18 17 16 15 15 14 14 13 13 12 12 13 14 15 15 16 15 15 15 16 17 19 19 18 18 16 15 15 11 9 9 9 8 4 2 5 5 6 6 6 7 9 12 15 12 11 9 8 10 14 16 16 14 12 10 8 7 5 4
6 6 6 7 7 8 8 9 10 11 12 14 15 17 19 19 20 21 21 21 22 21 21 20 19 18 18 18 19 18 16 15 15 15 14 13 12 11 11 11 12 13 14 14 14 14 14 15 15 17 19 20 19 18 16 15 15 13 11 10 9 6 2 4 6 6 6 7 5 7 9 12 14 8 14 10 9 14 17 18 15 13 11 10 9 8 7 5
6 6 6 7 8 9 10 11 12 13 15 16 18 19 20 21 22 22 22 22 21 21 21 20 18 17 17 17 17 17 15 15 14 13 12 10 10 9 9 9 10 11 12 12 13 14 14 14 15 15 16 17 17 17 17 16 16 16 15 11 7 4 3 6 7 6 5 6 4 6 8 10 13 2 15 14 13 17 18 15 13 12 11 9 9 8 7 6
7 7 8 8 10 11 12 13 15 16 18 19 20 21 22 23 23 24 23 23 21 21 21 19 18 17 17 17 16 14 14 13 13 12 10 9 8 7 7 7 7 8 10 10 12 13 13 13 13 13 14 15 16 17 18 18 18 17 15 10 8 6 7 7 5 5 5 4 4 5 6 7 11 7 8 10 12 14 14 12 12 12 11 9 9 8 7 6
9 9 10 11 12 14 15 16 18 19 20 22 22 23 24 24 24 24 23 22 22 21 20 19 18 17 16 16 15 13 12 12 11 10 9 8 7 6 4 4 4 5 8 8 8 10 12 12 11 12 14 17 18 18 19 19 20 16 12 11 10 10 10 7 4 5 5 4 4 4 4 5 7 9 9 9 9 10 10 10 11 11 11 10 9 8 8 6
11 12 13 14 15 16 18 19 20 21 23 24 24 25 25 25 25 24 23 22 21 20 18 18 18 18 16 16 15 12 10 10 9 9 8 7 6 4 3 2 2 3 6 7 7 10 13 14 14 15 17 19 20 21 20 20 21 16 12 12 11 12 10 7 4 4 5 5 4 3 3 4 5 8 9 9 8 7 8 9 9 9 9 9 9 9 7 6
14 15 16 17 18 19 21 22 23 24 25 25 26 26 26 25 24 23 22 21 20 19 18 17 18 18 17 16 14 9 8 8 8 7 8 7 6 3 2 2 2 4 6 7 10 14 17 18 19 20 21 21 22 21 21 22 22 20 17 13 12 11 9 7 4 3 5 6 5 3 1 2 3 6 6 7 6 5 5 6 7 8 8 8 9 10 7 6
17 18 20 21 22 23 24 25 25 26 26 26 26 26 25 23 21 20 20 19 19 18 17 17 16 17 17 16 13 9 6 7 7 6 6 6 4 1 2 3 3 4 8 9 11 15 19 21 22 23 23 22 22 22 23 24 22 19 17 13 12 10 8 7 6 2 4 6 5 4 2 2 1 3 3 4 4 3 2 4 6 7 7 8 9 10 7 6
21 22 23 24 25 25 26 27 27 26 26 26 25 24 23 22 20 19 18 17 17 17 17 16 14 15 16 14 11 7 4 4 5 5 6 6 3 2 1 5 5 5 10 12 14 16 18 21 22 22 20 20 21 21 21 21 15 15 15 13 13 12 9 9 7 3 3 5 5 5 5 4 3 2 1 1 1 2 3 4 6 7 8 9 10 10 9 9
24 25 25 26 27 27 27 27 26 26 26 24 23 22 21 20 19 18 16 15 15 16 16 15 14 13 14 13 9 7 5 3 4 4 5 4 3 3 3 5 7 8 10 11 13 14 12 13 14 14 13 14 17 15 17 16 14 17 16 14 15 16 14 12 8 3 3 7 6 7 7 6 5 3 1 2 3 3 5 6 6 8 9 10 11 11 11 10
27 27 27 27 27 28 27 26 25 25 24 22 22 21 20 19 18 17 15 14 14 15 14 14 14 13 13 11 7 6 6 4 4 4 3 2 1 2 2 5 7 8 8 8 9 8 6 4 4 5 8 13 16 16 17 16 19 20 17 18 18 17 16 12 9 6 7 10 10 9 9 7 5 3 2 3 4 4 5 6 6 7 10 12 12 12 13 12
28 28 28 27 27 27 26 25 24 24 22 21 21 21 20 18 16 16 16 14 12 13 13 14 14 13 12 9 7 6 5 4 4 3 2 1 2 2 1 3 5 7 8 8 8 6 3 2 4 4 6 10 13 13 14 17 23 22 21 22 20 16 15 12 10 10 12 14 13 12 11 8 6 4 4 5 5 5 6 7 7 8 10 14 16 14 15 15
29 28 27 26 26 26 25 24 23 23 22 21 21 19 18 17 17 16 15 14 12 11 12 12 12 12 11 9 6 5 4 4 4 3 2 0 2 3 2 2 3 4 7 6 7 5 2 4 7 8 7 6 6 7 10 21 28 26 26 24 17 14 15 14 14 15 16 17 14 11 11 9 7 5 6 6 5 5 5 7 8 8 8 10 16 17 16 17
28 27 26 25 25 25 25 24 22 22 22 20 19 18 17 17 16 16 15 14 12 11 11 11 12 11 9 7 6 5 4 4 2 1 1 0 1 2 2 3 2 1 1 3 6 4 5 8 5 4 6 4 3 3 9 23 29 29 29 25 16 11 11 12 15 15 14 14 11 10 11 11 10 9 8 7 6 6 5 6 7 7 8 7 12 17 18 17
27 27 26 25 25 25 25 24 23 23 21 20 19 17 16 16 15 16 15 13 13 12 11 10 11 9 5 5 5 5 6 5 2 2 2 1 2 3 4 4 5 6 8 9 8 6 9 10 7 2 1 3 4 2 5 18 26 26 28 26 20 16 11 8 10 14 14 11 10 12 16 17 17 15 12 9 7 7 6 6 6 6 8 8 8 12 15 17
27 27 27 26 26 26 26 25 24 23 21 20 19 17 16 16 15 15 14 13 13 13 11 9 8 6 3 5 5 5 7 6 3 3 3 4 3 3 5 7 8 9 11 11 10 10 10 7 5 4 7 7 4 4 3 12 20 20 22 24 23 22 20 14 13 16 12 5 4 10 13 15 17 18 18 14 9 8 7 7 7 6 7 8 7 8 10 12
29 28 28 28 27 28 28 26 26 25 22 21 20 17 16 15 15 15 13 13 13 12 12 10 6 3 3 7 7 4 3 3 2 2 3 5 5 4 7 11 10 8 10 10 10 13 14 8 6 7 9 6 6 8 3 9 16 16 15 18 21 24 25 21 19 17 10 6 8 10 10 11 12 16 19 17 14 12 11 10 10 10 10 9 9 10 9 9
30 30 30 30 30 30 29 28 28 26 24 23 21 19 17 15 15 16 13 12 12 12 13 12 8 6 6 8 7 4 3 4 4 3 3 5 9 9 10 11 10 10 10 10 8 9 14 10 8 7 5 5 3 8 6 9 14 15 15 16 16 18 20 20 19 16 10 9 8 7 9 11 11 13 15 16 16 16 15 14 12 12 12 12 12 12 12 11
32 32 32 32 32 32 31 29 29 27 25 24 22 20 17 15 15 16 13 13 14 14 12 12 10 8 7 6 4 4 1 4 5 5 4 6 11 13 12 13 16 15 10 7 4 4 8 7 6 3 5 7 2 6 9 11 14 19 20 20 17 13 15 16 16 13 10 11 10 9 12 13 13 14 13 13 15 16 15 15 13 13 14 14 14 14 15 15
33 32 31 31 31 30 30 29 28 27 26 25 24 21 17 15 16 16 16 17 17 17 14 10 8 6 6 6 2 1 3 7 7 5 2 5 11 13 13 14 17 15 9 6 4 5 3 5 6 3 6 5 2 6 13 15 16 19 20 19 17 13 12 11 11 13 13 14 14 13 13 14 15 17 16 13 12 13 14 15 14 13 14 14 14 14 15 15
30 29 28 28 28 28 27 26 26 25 25 25 24 19 16 16 17 17 19 19 18 20 17 11 10 9 6 5 1 4 4 4 6 8 8 6 8 9 7 9 11 11 10 8 6 5 4 3 4 4 3 3 3 7 17 16 14 17 20 20 17 14 13 11 11 14 16 17 17 16 15 15 15 16 15 12 11 12 14 15 15 12 11 12 12 11 12 13
27 26 25 25 25 25 25 24 25 24 24 24 22 17 16 19 19 19 20 20 18 20 18 13 13 11 6 4 4 4 2 3 6 6 8 8 7 8 5 4 6 7 9 12 10 7 7 5 2 2 4 2 1 9 15 10 7 11 17 19 17 17 18 16 13 16 19 20 20 19 18 18 18 16 14 13 13 14 15 15 15 13 11 11 12 13 13 13
26 26 24 24 24 25 24 24 24 23 23 22 19 17 18 20 20 21 22 22 20 20 19 15 14 12 8 6 5 5 3 2 6 6 7 7 10 11 7 2 2 3 7 12 13 13 12 9 6 6 5 5 5 10 15 11 8 12 14 16 17 18 19 17 16 18 21 22 22 21 20 20 19 17 16 15 14 14 16 16 16 15 13 11 12 14 15 14
26 26 24 24 26 26 25 25 24 23 21 19 17 17 19 21 22 24 27 26 24 24 23 18 15 14 12 10 9 10 7 2 3 4 3 6 10 12 8 5 7 9 9 12 15 17 16 14 13 11 7 9 10 11 18 15 12 15 14 16 21 22 21 19 17 19 21 24 24 24 23 22 19 17 16 15 13 12 13 15 15 15 15 13 11 12 15 16
27 26 25 25 27 26 25 25 24 22 19 16 17 19 21 23 25 28 30 30 28 27 26 21 17 17 16 16 14 10 9 8 6 6 5 7 10 12 11 12 13 12 10 13 17 21 21 20 20 16 11 9 11 16 22 16 14 18 17 17 24 25 24 22 20 19 19 22 24 24 24 23 22 19 17 15 13 11 11 12 12 13 14 14 12 11 12 15
28 27 25 25 28 26 25 24 23 21 18 17 19 21 23 24 27 29 31 31 29 29 27 22 20 21 19 19 17 11 10 12 10 9 10 10 11 13 16 19 19 16 13 13 16 21 23 24 23 20 17 12 11 17 21 17 16 22 21 20 23 24 22 23 22 20 19 22 25 25 24 24 24 22 20 17 14 12 10 10 10 11 12 13 12 11 11 13
30 29 24 24 28 27 25 25 23 20 18 18 20 23 25 26 27 29 32 32 31 30 28 23 21 22 21 22 22 17 14 13 13 14 15 15 16 17 21 24 22 18 15 12 13 18 24 26 26 23 21 17 14 15 17 16 19 23 24 22 21 19 18 21 23 22 21 23 26 27 25 23 22 23 23 21 17 14 12 11 12 12 11 11 11 11 11 13
32 31 25 23 28 29 27 26 24 21 20 21 23 24 25 26 26 28 32 33 33 32 29 24 22 23 23 24 25 22 19 16 16 18 18 17 18 20 23 26 24 19 16 15 15 17 21 26 28 28 25 21 17 17 15 15 17 20 22 23 21 19 19 21 24 24 23 24 26 27 27 24 21 21 21 20 18 15 14 14 14 13 11 11 10 10 10 12
33 32 28 25 28 30 28 27 26 24 23 24 24 26 27 27 26 28 32 34 35 34 31 28 27 27 27 27 26 24 24 21 20 22 20 16 16 19 22 25 25 23 21 19 18 19 20 23 27 30 28 23 21 21 18 16 16 17 19 22 23 22 21 22 24 25 26 27 27 27 27 25 23 21 20 19 17 15 14 14 14 13 13 13 13 13 13 12
33 33 32 28 28 29 28 28 27 25 24 24 25 27 29 29 29 30 32 34 34 34 34 32 30 28 28 30 29 27 27 26 23 23 23 19 17 20 22 25 27 26 25 22 20 20 20 23 26 28 28 26 24 24 22 19 18 17 18 22 25 25 24 23 22 23 26 29 30 30 29 26 23 21 21 21 18 16 15 15 15 14 13 13 13 14 14 14
33 34 35 31 27 27 27 29 28 26 25 25 25 26 27 28 30 32 35 36 35 35 36 35 31 27 27 31 32 31 31 31 27 23 23 23 24 25 25 27 30 31 28 24 21 19 20 23 26 26 25 26 28 27 25 23 21 18 17 20 24 25 25 24 22 21 22 24 26 29 30 29 27 25 23 21 19 17 16 16 16 16 14 12 12 13 14 15
33 35 35 29 24 25 28 28 27 26 26 26 25 26 25 26 29 33 36 38 38 37 35 34 30 25 24 28 31 33 33 33 31 27 24 23 25 29 31 33 34 34 30 26 22 20 18 21 23 23 22 25 30 31 29 26 23 20 18 19 21 22 24 23 22 22 22 22 21 22 23 25 27 27 24 21 19 17 16 16 17 17 16 14 14 14 15 16
32 32 31 26 23 26 27 25 23 24 26 26 26 26 27 27 29 32 36 38 39 39 37 34 29 24 23 26 29 34 36 34 33 32 29 26 27 30 33 34 33 32 31 27 23 20 18 18 20 21 21 23 29 34 32 29 27 25 23 24 24 24 24 24 24 25 25 24 22 19 17 17 20 23 23 21 19 18 17 17 17 17 16 16 15 15 16 17
29 29 27 25 24 25 24 23 21 22 24 24 24 26 28 30 31 31 35 38 40 40 38 35 30 27 26 26 28 32 38 38 35 32 31 30 29 30 33 34 32 32 33 31 26 22 20 19 18 21 23 23 26 32 35 35 32 30 28 28 27 27 28 27 28 28 28 26 24 21 19 18 18 19 20 19 20 19 18 18 18 18 18 17 16 15 15 17
26 28 27 25 24 23 23 24 22 21 21 21 22 24 27 30 32 33 35 38 39 40 40 37 34 35 34 30 31 33 37 41 40 34 31 30 28 29 32 34 34 34 34 34 30 25 22 20 18 19 23 24 25 29 35 37 37 34 32 30 30 31 31 31 32 32 31 29 26 21 19 19 19 18 18 19 20 20 19 19 19 20 19 19 18 17 16 17
26 29 28 26 24 23 24 26 24 22 23 23 24 26 26 28 31 34 35 36 37 40 41 40 39 39 36 34 36 38 38 40 39 35 32 31 30 30 30 32 34 34 33 35 35 30 24 20 18 19 21 22 25 28 32 34 36 35 33 32 31 31 32 32 32 31 30 27 24 19 17 18 19 18 17 18 18 18 18 18 18 18 18 18 18 17 17 17
27 29 28 25 24 24 26 27 27 26 27 28 29 29 28 28 30 33 34 34 37 39 39 39 39 38 35 36 40 41 39 39 36 32 29 28 29 31 33 32 33 34 35 36 36 33 27 21 17 19 19 21 25 29 30 31 32 32 33 32 30 28 28 28 28 26 23 21 19 17 18 19 19 18 17 16 16 16 16 16 16 16 16 17 17 17 17 17
Wind_Direction
93 92 91 89 87 85 83 80 78 76 73 70 66 63 59 54 49 43 37 30 24 18 12 7 3 359 355 351 346 338 329 315 302 294 290 286 280 274 273 270 269 269 267 267 267 263 257 252 247 248 254 253 226 238 258 225 87 60 48 56 71 83 83 85 82 77 67 55 44 38 53 78 57 38 32 33 32 35 47 37 12 23 25 55 62 63 82 84
91 89 87 86 83 81 78 75 73 70 66 63 59 54 49 44 37 32 26 20 15 8 2 359 354 351 348 345 342 335 323 309 298 292 285 281 276 272 270 266 264 262 262 261 260 259 255 254 249 240 237 241 222 223 247 247 236 34 15 8 48 54 65 68 58 49 43 37 28 30 43 65 49 34 27 26 34 38 37 26 12 14 16 36 55 62 83 90
90 87 85 82 79 77 73 71 68 65 61 56 51 46 41 35 29 25 19 14 8 2 357 352 348 345 342 341 338 331 319 307 298 290 280 275 272 270 268 264 261 258 257 256 255 254 252 253 254 248 231 239 241 227 236 243 244 245 16 325 15 33 60 64 46 25 15 14 6 12 19 11 4 18 13 5 17 44 41 18 356 359 12 24 38 53 84 96
90 88 84 80 75 71 67 65 61 57 52 47 43 37 32 28 23 19 13 8 3 358 353 348 344 340 338 338 335 329 319 308 299 289 278 272 269 268 266 264 259 256 254 252 250 249 249 249 253 252 229 226 229 221 222 219 238 244 163 271 314 234 134 76 34 15 359 354 349 350 352 350 346 334 343 349 352 4 70 45 329 335 3 14 21 38 72 99
91 89 84 76 69 62 59 55 51 46 41 35 30 26 22 18 15 12 8 3 360 355 351 346 342 338 336 335 333 328 319 310 303 293 281 273 268 266 266 265 261 257 253 250 248 245 246 246 246 246 232 223 216 210 211 199 210 219 186 238 238 219 133 56 10 358 343 335 334 332 325 328 334 326 325 334 343 316 186 151 252 292 344 10 13 32 63 96
88 88 82 68 56 49 45 40 35 30 26 20 16 13 10 9 7 5 2 359 356 352 349 345 341 337 334 334 330 324 320 316 310 299 288 278 269 264 262 261 260 258 255 250 247 243 243 243 243 244 238 226 213 210 209 196 189 181 197 249 243 223 80 53 10 350 339 333 329 324 318 318 321 321 317 315 324 311 241 251 235 256 333 22 11 25 61 81
76 68 58 25 14 13 12 11 10 7 5 1 360 0 360 0 359 358 357 354 352 350 347 343 340 336 333 331 327 324 324 321 311 302 293 284 273 264 260 257 256 255 254 252 248 244 241 240 240 243 245 237 222 217 218 219 202 178 199 243 245 69 62 54 11 352 338 326 322 322 318 314 313 313 308 302 305 303 279 286 274 241 302 48 24 13 57 70
281 277 272 280 290 305 320 331 336 339 341 342 343 345 348 350 351 351 351 349 348 346 344 342 339 336 332 329 326 325 325 319 309 301 292 285 276 266 258 255 253 250 250 251 249 246 241 239 239 244 252 255 240 227 228 235 217 185 191 217 193 97 74 53 1 355 332 318 320 324 318 312 308 305 300 298 299 290 267 266 260 232 203 121 72 16 42 63
277 272 270 271 272 283 296 304 312 319 323 327 329 333 338 341 344 345 345 345 343 342 341 340 338 334 330 327 326 324 322 319 311 301 291 285 280 270 258 253 252 250 248 248 249 247 243 242 240 240 242 248 247 241 242 247 225 194 192 194 152 109 68 332 356 349 322 317 323 325 317 307 302 301 295 294 296 284 264 249 236 221 202 153 124 73 28 49
276 272 270 268 269 276 285 294 300 306 311 316 319 325 331 334 338 339 340 340 339 339 339 338 336 332 328 327 325 321 320 318 311 301 294 288 281 274 264 253 250 249 248 246 246 246 245 243 238 235 232 236 243 247 252 259 256 233 208 184 130 96 348 333 351 336 312 315 326 326 319 304 294 292 287 286 289 277 268 247 210 197 191 162 142 122 60 53
278 275 272 269 269 272 279 287 292 298 303 308 314 320 326 330 334 335 336 335 336 336 336 336 333 330 326 324 322 319 317 315 308 300 294 289 283 277 269 259 251 248 248 247 246 246 249 248 242 235 230 233 243 251 257 264 267 263 230 179 146 111 321 331 340 320 306 315 323 323 320 307 286 279 280 276 277 268 267 247 195 179 178 171 156 134 129 98
282 280 278 275 276 276 281 285 290 296 299 304 311 318 323 328 331 331 332 333 334 334 334 333 331 327 323 320 319 317 314 310 303 298 292 286 280 275 270 263 255 250 248 248 248 249 250 248 243 238 233 235 247 257 256 252 255 260 252 223 196 161 288 297 311 305 306 314 318 319 319 309 281 273 277 271 270 262 253 228 186 175 179 175 170 166 170 179
284 284 284 282 282 283 285 288 291 295 298 303 310 317 322 325 328 328 329 331 331 331 331 331 328 324 321 317 316 315 313 306 301 298 294 288 281 274 269 263 257 252 249 248 248 246 243 240 236 236 237 232 236 249 248 240 232 233 231 220 196 176 235 265 280 293 306 307 310 315 316 309 285 275 273 267 264 249 234 210 181 174 181 178 177 186 187 187
284 286 287 286 287 289 290 292 294 296 298 304 310 316 320 323 325 325 327 328 328 328 328 328 325 321 317 315 313 314 313 306 299 297 294 290 283 275 269 262 257 252 249 247 245 243 240 237 231 228 230 226 223 234 242 242 231 215 208 204 194 189 208 241 273 283 300 302 307 319 317 313 296 278 264 255 247 234 220 197 179 173 179 181 180 189 186 178
285 287 288 288 290 293 294 296 296 297 300 305 310 315 318 321 322 323 324 325 324 325 325 325 323 318 315 312 312 313 312 305 300 298 294 288 281 274 267 261 256 250 246 245 242 240 237 233 228 220 221 224 226 232 237 245 244 229 210 203 198 198 208 246 287 278 287 297 311 323 314 313 305 279 253 237 223 219 208 188 178 174 178 180 177 184 181 169
286 287 287 287 289 291 293 293 294 297 301 306 311 314 316 319 319 320 321 321 321 321 321 321 320 316 313 312 312 313 311 307 305 302 296 291 284 275 268 261 254 248 243 241 240 238 233 230 227 217 218 221 223 230 237 246 251 247 237 222 207 202 211 273 285 273 282 294 309 320 315 323 318 279 234 215 193 195 195 185 177 174 175 174 172 177 175 173
285 285 284 284 285 286 288 290 294 299 304 308 311 313 315 316 317 318 318 318 318 317 317 318 316 313 312 312 313 313 311 309 307 305 301 296 287 277 269 261 255 248 241 236 233 232 229 226 223 218 218 219 218 221 227 239 245 246 247 236 217 204 219 275 278 272 285 295 301 324 327 340 338 266 208 198 187 191 191 184 178 173 173 170 169 175 173 177
282 281 282 281 284 287 290 294 298 302 305 308 309 311 313 314 315 315 314 315 314 313 313 313 312 311 310 310 312 312 311 308 307 307 303 296 288 280 271 262 256 249 241 234 227 222 220 219 219 219 219 220 220 217 218 228 237 243 245 232 197 179 236 257 271 272 282 302 313 340 346 358 3 290 198 193 189 190 185 179 177 173 173 168 167 176 177 180
280 282 282 285 289 291 295 297 300 303 305 306 308 310 311 312 312 312 312 312 310 309 309 309 310 308 307 310 310 307 305 305 306 306 303 300 296 290 278 265 257 248 238 229 224 218 211 209 209 207 209 212 213 214 216 220 228 235 237 219 169 164 215 230 253 269 278 317 332 347 3 15 22 49 157 170 172 175 170 173 179 173 173 171 169 177 179 182
281 283 285 288 290 293 296 298 300 303 304 306 308 309 310 311 310 309 310 308 306 307 306 307 306 304 308 310 305 301 304 307 308 309 309 308 304 300 294 278 259 253 237 218 216 213 199 187 186 191 198 202 202 208 211 215 224 224 216 211 187 182 206 213 233 269 286 315 332 338 4 25 44 70 97 115 133 149 154 170 182 179 176 175 178 182 179 182
280 283 285 287 290 293 295 298 300 302 304 306 307 307 308 309 308 307 307 304 304 305 303 303 302 302 307 304 298 301 310 309 309 312 312 310 305 302 325 322 251 229 222 199 181 186 179 163 166 180 191 200 202 203 204 209 219 209 194 208 194 180 197 203 220 278 297 298 314 326 353 31 66 86 96 107 122 140 152 168 183 186 186 186 188 189 189 189
283 285 286 288 291 293 295 297 299 301 303 304 304 305 306 307 306 305 304 302 303 302 301 302 302 303 305 302 300 307 312 305 310 317 310 305 298 295 356 325 233 193 195 185 177 180 174 164 170 181 190 202 207 207 209 214 216 199 186 203 192 176 197 203 205 273 293 288 305 315 316 33 68 90 102 109 116 135 150 173 191 193 196 200 198 199 205 203
286 288 289 291 292 293 295 296 297 299 300 300 300 302 303 302 302 301 300 300 301 301 300 301 303 304 304 304 305 311 317 310 317 321 297 282 271 288 345 301 270 195 183 177 179 183 181 176 178 188 195 200 205 208 211 218 215 192 179 200 203 185 198 208 200 240 296 290 294 283 228 151 117 98 112 120 118 145 172 197 212 213 206 204 209 209 208 213
287 289 290 291 292 293 294 294 296 296 297 297 298 300 300 299 299 297 297 298 297 297 297 298 299 297 296 297 298 302 318 321 319 305 276 268 247 194 248 277 273 211 190 181 177 175 182 186 184 191 198 198 204 207 213 219 205 176 177 201 211 198 198 213 204 191 297 287 282 260 218 181 184 155 99 163 179 220 242 236 230 231 220 210 217 216 213 220
287 288 289 290 291 291 291 293 294 294 294 296 297 298 297 298 299 297 296 295 293 293 294 296 296 294 293 294 293 297 315 324 312 285 262 271 269 213 218 249 243 222 205 187 177 167 172 191 193 202 207 201 206 210 218 215 171 163 185 202 212 210 205 208 200 182 273 269 268 253 219 199 202 187 154 253 249 245 260 265 249 240 232 221 220 220 223 224
287 287 287 287 288 289 290 291 291 292 294 294 293 293 294 297 298 296 294 291 291 292 291 292 294 295 296 298 304 317 327 318 297 292 273 259 256 242 251 257 256 256 231 185 162 150 151 179 189 215 218 200 198 206 216 203 165 166 188 201 210 214 209 206 193 192 242 249 245 237 218 204 207 205 207 250 265 259 262 277 276 264 250 233 223 221 224 224
285 285 285 286 286 288 289 289 291 292 291 290 291 293 296 297 294 292 292 290 290 290 288 292 295 296 297 299 310 321 319 297 290 307 293 218 191 206 209 250 283 293 255 198 150 137 159 183 161 171 205 201 199 210 214 187 169 173 187 197 207 214 210 201 194 209 234 242 236 229 219 209 207 213 218 235 254 260 263 274 281 290 275 242 227 221 222 223
284 284 284 285 285 286 287 288 290 289 288 290 292 294 296 295 292 290 290 289 289 286 286 294 296 295 298 300 306 301 291 291 302 328 323 258 175 199 180 203 265 296 267 215 144 131 148 160 166 170 186 211 224 230 203 177 173 179 186 192 203 220 217 204 209 223 230 235 235 233 232 225 225 230 226 230 253 276 282 277 274 295 303 251 225 219 222 225
283 283 283 284 284 285 285 287 288 286 288 290 290 292 292 292 291 287 286 287 286 283 284 289 288 288 294 298 301 299 300 305 301 314 318 35 134 185 169 169 180 7 311 144 115 97 102 110 119 171 190 222 278 256 183 178 182 184 184 186 194 216 224 217 223 230 234 246 261 268 268 261 254 256 251 246 258 274 289 291 280 289 306 277 231 219 221 227
280 281 282 282 282 282 282 283 282 282 285 285 284 286 286 287 285 283 285 286 284 284 287 289 286 284 290 299 313 324 318 308 267 200 162 124 134 175 175 157 138 112 113 120 113 106 112 103 77 69 247 312 306 272 178 184 194 193 187 188 191 195 210 223 227 235 251 282 303 288 278 270 262 259 257 252 252 258 271 287 289 288 289 285 254 227 226 232
279 279 280 280 279 279 278 279 278 279 280 279 279 281 281 283 281 280 281 280 281 285 285 282 275 272 299 311 323 327 303 286 252 191 149 127 147 196 173 139 131 129 124 120 125 135 137 123 85 38 341 324 259 242 206 190 202 202 192 194 197 195 198 205 217 235 252 284 279 262 264 265 261 254 249 247 249 253 252 256 263 268 266 260 251 239 239 240
278 277 277 278 277 276 276 276 275 275 275 274 275 275 276 278 278 275 273 273 278 279 276 269 245 233 312 303 297 296 256 228 203 166 142 140 150 167 154 139 133 140 143 138 143 157 167 159 82 33 351 334 208 217 215 182 197 203 190 191 203 205 205 213 224 228 229 217 224 236 242 253 258 249 244 241 242 247 243 240 243 245 247 243 237 233 232 237
277 276 276 276 275 274 274 273 272 272 270 269 269 268 270 273 271 268 265 262 262 265 272 271 254 262 293 285 283 284 196 160 144 137 145 168 165 157 159 161 163 171 174 164 159 174 181 166 89 64 12 12 165 194 180 169 181 182 172 170 186 202 204 209 212 206 209 231 240 239 238 246 251 247 245 238 235 241 242 245 247 247 252 252 247 238 226 221
277 276 276 275 273 272 271 270 269 269 266 264 263 261 263 265 264 263 255 245 245 252 264 273 275 287 302 295 298 303 227 122 102 108 137 184 182 170 164 170 176 182 185 171 174 208 193 163 102 94 300 335 345 188 177 182 177 163 159 159 162 178 183 184 196 210 235 253 251 244 238 239 240 242 241 233 232 241 249 257 265 270 272 271 269 262 244 230
277 276 275 274 272 270 269 267 266 265 262 260 258 256 257 257 255 251 243 238 242 248 251 262 269 277 307 314 328 21 92 92 56 17 328 220 201 190 176 173 180 180 168 161 207 256 225 163 142 191 274 325 17 174 178 191 189 168 162 159 161 177 180 183 215 236 244 249 249 248 245 244 246 243 237 233 241 253 261 264 268 276 277 275 278 276 264 257
275 274 273 272 271 268 266 264 263 262 259 256 254 253 250 246 243 237 236 238 244 252 252 248 244 248 285 299 154 101 82 68 14 342 316 280 233 219 202 181 176 161 155 181 228 264 248 196 160 180 246 343 30 176 180 188 191 177 168 162 169 190 193 200 230 236 235 240 244 249 253 256 257 249 240 240 250 260 262 258 256 261 260 254 257 256 249 255
272 271 271 272 270 266 263 262 262 261 258 255 253 247 238 237 236 230 229 230 235 248 253 246 237 235 240 229 174 136 90 343 335 325 303 281 244 242 242 161 142 137 168 200 219 232 228 218 180 206 242 275 261 196 183 170 168 176 170 166 181 203 201 205 226 232 233 234 238 247 250 251 253 248 241 241 244 248 250 247 245 249 248 238 236 236 232 238
270 269 269 270 268 264 262 261 262 260 257 255 249 238 232 231 231 223 216 217 224 236 243 241 236 229 215 203 206 206 201 317 317 313 303 270 242 244 249 197 176 202 205 209 213 219 223 219 222 247 227 141 130 188 184 170 173 184 180 182 197 210 207 213 227 232 232 231 237 248 247 245 248 245 241 239 237 240 246 245 244 251 254 245 235 234 235 240
270 269 268 267 266 263 262 261 261 259 257 253 241 231 227 224 223 215 208 213 222 227 232 234 231 227 216 193 199 217 207 192 264 268 285 269 254 249 246 250 253 244 228 218 216 216 220 222 225 241 222 146 129 171 187 195 195 178 176 195 204 206 205 212 225 229 228 228 233 241 242 242 241 237 238 239 237 242 248 247 248 254 262 264 256 243 239 241
271 269 268 266 265 264 262 261 259 257 253 243 230 224 221 219 218 214 211 217 225 228 233 236 225 218 213 195 191 207 201 184 196 217 241 268 266 256 249 250 252 252 242 227 221 217 218 225 226 234 238 196 165 176 185 198 196 176 178 198 206 207 205 211 227 231 226 227 232 236 238 239 237 236 241 247 248 251 251 249 250 259 270 274 269 256 246 243
273 271 269 267 266 264 261 259 256 253 248 236 227 222 219 218 217 217 217 220 223 226 233 239 225 212 208 196 189 196 197 193 197 213 235 255 266 266 259 255 255 258 250 233 228 223 220 225 229 234 242 232 201 191 189 189 188 186 193 202 205 210 211 214 228 235 232 231 234 238 239 239 238 240 248 255 256 254 255 259 261 265 272 273 268 260 252 247
275 274 271 266 265 261 255 253 251 248 242 232 225 221 218 218 216 218 221 221 223 226 232 239 229 215 209 198 194 196 196 199 206 211 225 244 259 266 261 258 260 260 250 235 234 231 223 226 232 237 243 240 220 207 198 190 188 193 204 214 217 224 228 226 229 236 240 237 237 241 243 244 244 244 250 256 258 255 259 269 273 267 262 259 261 264 258 251
276 276 271 262 260 258 252 250 248 244 236 228 223 219 218 219 216 216 220 221 222 226 229 231 223 215 211 203 200 200 195 200 212 215 222 238 251 258 258 258 260 260 255 243 237 236 228 225 229 236 244 244 231 221 210 199 198 201 211 223 232 241 247 241 233 235 242 242 240 242 245 250 252 250 254 260 263 263 264 273 276 267 255 249 252 263 264 257
275 276 271 259 253 253 250 249 248 244 237 229 222 217 215 214 212 213 218 221 222 224 227 228 221 213 208 206 207 204 197 201 212 218 221 227 236 244 249 253 255 258 259 251 242 241 236 230 226 228 236 238 231 227 218 205 206 212 218 228 235 241 245 242 235 235 240 243 243 242 245 251 255 255 258 261 264 265 265 272 275 264 254 252 253 260 266 265
274 273 269 258 249 248 247 249 249 243 238 233 226 221 218 214 209 208 212 218 223 226 227 229 227 219 210 209 211 208 202 202 210 220 227 229 235 242 245 247 252 258 262 260 254 249 243 238 230 225 227 226 224 228 227 216 218 225 229 230 232 236 240 245 245 240 238 241 243 243 246 252 257 259 262 262 262 261 263 270 272 267 261 261 262 264 265 265
271 270 267 261 252 249 249 250 249 242 236 233 227 224 223 219 213 208 206 211 220 227 228 229 231 227 219 216 214 210 207 205 208 221 233 237 239 242 241 241 246 255 261 263 266 261 246 239 234 227 223 219 217 225 230 228 231 237 234 226 226 232 239 247 253 251 245 244 246 247 250 254 258 261 263 262 257 257 263 271 273 272 270 271 274 273 270 266
269 268 268 263 253 251 252 253 252 247 239 234 226 220 218 219 220 217 211 210 216 224 227 228 229 228 227 223 215 210 211 210 210 220 234 241 241 240 240 241 245 255 260 261 267 267 249 239 235 226 219 216 214 220 230 234 235 237 233 226 226 235 244 250 256 260 259 256 255 254 253 254 256 258 260 258 255 258 265 270 273 275 276 278 278 275 271 268
268 269 267 261 251 249 253 255 255 251 245 238 229 219 213 213 218 222 220 216 216 220 223 225 224 222 225 226 216 209 211 213 215 220 231 241 244 242 245 248 252 258 262 262 262 258 247 242 238 227 219 215 213 218 228 236 237 237 238 235 233 237 249 257 260 263 265 264 262 261 259 258 256 256 257 256 257 261 265 267 272 276 280 282 280 275 271 266
267 266 261 255 248 246 248 249 247 246 244 240 235 229 221 215 213 218 222 221 218 220 223 222 218 212 216 228 228 217 213 215 217 219 227 238 244 246 248 252 257 262 266 266 262 253 250 255 251 235 226 222 216 217 224 232 238 240 242 244 243 244 252 260 262 264 268 270 270 272 274 273 266 259 258 257 256 258 260 265 270 275 279 282 280 276 271 266
261 258 254 249 245 241 241 241 237 235 235 233 232 235 233 226 217 214 219 223 222 221 222 221 217 213 215 227 236 230 222 221 219 216 218 227 237 245 248 252 257 262 267 270 267 260 261 269 263 243 231 225 219 219 224 230 236 239 242 245 247 250 257 261 261 263 266 269 273 279 280 276 271 266 262 259 258 259 261 264 269 273 277 279 279 275 270 266
254 252 251 247 243 237 234 234 230 225 224 223 222 224 227 230 226 217 217 223 225 224 224 222 221 221 222 226 231 233 231 227 221 214 214 218 225 235 243 248 253 258 262 266 267 266 269 272 262 245 233 225 221 224 227 229 234 238 240 242 244 250 259 262 261 261 263 267 273 278 273 270 272 273 269 266 265 265 265 266 269 273 277 278 278 277 273 268
249 249 249 247 243 238 233 230 227 223 224 225 224 220 215 218 223 221 217 219 225 229 230 228 226 225 222 221 225 229 230 228 221 214 214 217 221 228 233 238 245 252 255 260 265 270 271 267 254 243 235 224 221 226 231 232 235 238 242 245 247 250 257 263 265 264 263 265 272 274 269 269 272 274 275 276 274 272 270 270 271 273 276 278 279 279 278 274